GW3154 Weather Reports


Display with metric or nautical units.
time (UTC)temp
F
wind
direction
speed
MPH
gust
MPH
rain 1hr
in
rain 24hr
in
rain mn
in
humidity
%
barometer
mb
20260906193156 57 173 1.0 1.0 0.14 0.42 0.42 99 1018.7
20260906191652 57 146 0.0 0.0 0.12 0.39 0.39 99 1018.8
20260906190152 57 146 0.0 0.0 0.17 0.36 0.36 98 1018.8
20260906184651 57 158 0.0 1.0 0.07 0.31 0.31 97 1018.6
20260906183150 57 166 0.0 0.0 0.00 0.30 0.30 98 1018.6
20260906181647 57 177 2.0 3.0 0.05 0.30 0.30 98 1018.4
20260906180144 57 153 0.0 0.0 0.00 0.28 0.28 98 1018.3
20260906174642 57 155 0.0 0.0 0.05 0.27 0.27 98 1018.5
20260906173139 57 166 0.0 0.0 0.00 0.26 0.26 99 1018.2
20260906171639 57 149 0.0 0.0 0.05 0.25 0.25 99 1018.1
20260906170136 57 152 0.0 0.0 0.12 0.24 0.24 99 1018.1
20260906164632 57 166 1.0 1.0 0.12 0.22 0.22 99 1018.1
20260906163132 56 161 0.0 0.0 0.05 0.19 0.19 99 1017.9
20260906161629 56 161 0.0 0.0 0.12 0.17 0.17 99 1017.8
20260906160126 56 243 1.0 1.0 0.12 0.15 0.15 99 1017.7
20260906154627 57 158 0.0 0.0 0.19 0.13 0.13 99 1017.8
20260906153126 57 171 1.0 1.0 0.12 0.10 0.10 99 1017.7
20260906151621 56 89 0.0 0.0 0.00 0.07 0.07 99 1017.6
20260906150120 57 151 0.0 0.0 0.05 0.06 0.06 99 1017.1
20260906144619 57 171 0.0 0.0 0.07 0.05 0.05 99 1017.5
20260906143117 57 110 0.0 0.0 0.00 0.04 0.04 99 1017.3
20260906141616 57 138 0.0 1.0 0.00 0.03 0.03 99 1017.3
20260906140112 56 78 0.0 0.0 0.00 0.03 0.03 99 1017.1
20260906134611 56 68 0.0 1.0 0.00 0.03 0.03 99 1016.8
20260906133108 56 48 1.0 1.0 0.05 0.03 0.03 99 1016.8
20260906131606 56 74 1.0 1.0 0.00 0.02 0.02 99 1016.6
20260906124601 56 63 0.0 1.0 0.00 0.01 0.01 99 1016.6
20260906123057 56 153 0.0 0.0 0.00 0.01 0.01 99 1016.7
20260906121553 57 153 0.0 0.0 0.00 0.01 0.01 99 1016.9
20260906120048 57 159 0.0 0.0 0.00 0.01 0.01 99 1016.7
20260906114543 57 163 0.0 1.0 0.00 0.01 0.01 98 1016.6
20260906113039 57 158 0.0 0.0 0.00 0.01 0.01 98 1016.6
20260906111536 57 149 0.0 0.0 0.05 0.01 0.01 97 1016.7
20260906110030 57 145 0.0 0.0 0.00 0.00 0.00 97 1016.7
20260906104525 57 166 0.0 0.0 0.00 0.00 0.00 96 1016.7
20260906103020 57 183 0.0 1.0 0.00 0.00 0.00 96 1016.8
20260906101520 57 88 0.0 0.0 0.00 0.00 0.00 96 1016.4
20260906100018 57 88 0.0 0.0 0.00 0.00 0.00 96 1016.3
20260906094512 57 88 0.0 0.0 0.00 0.00 0.00 96 1016.3
20260906093010 57 88 0.0 0.0 0.00 0.00 0.00 95 1016.3
20260906091507 57 152 0.0 0.0 0.00 0.00 0.00 96 1016.3
20260906090004 57 175 2.0 2.0 0.00 0.00 0.00 96 1016.4
20260906084504 57 59 0.0 0.0 0.00 0.00 0.00 96 1016.3
20260906083003 57 59 1.0 1.0 0.00 0.00 0.00 95 1016.4
20260906081502 57 60 0.0 0.0 0.00 0.00 0.00 96 1016.3
20260906080000 57 60 0.0 0.0 0.00 0.00 0.00 94 1016.2
20260906074456 57 60 0.0 0.0 0.00 0.00 0.00 94 1016.3
20260906072952 57 60 0.0 1.0 0.00 0.00 0.00 94 1016.4
20260906071451 57 60 0.0 0.0 0.00 0.00 0.00 94 1016.4
20260906065949 57 60 1.0 1.0 0.00 0.01 0.01 94 1016.5
20260906064447 57 60 0.0 0.0 0.00 0.01 0.01 94 1016.4
20260906062943 57 60 0.0 0.0 0.00 0.01 0.01 94 1016.2
20260906061441 57 60 0.0 0.0 0.00 0.01 0.01 93 1016.3
20260906055940 58 60 0.0 0.0 0.00 0.01 0.01 92 1016.4
20260906054437 58 60 0.0 0.0 0.00 0.01 0.01 92 1016.8
20260906052936 57 60 0.0 0.0 0.00 0.01 0.01 92 1016.9
20260906051435 58 60 0.0 0.0 0.00 0.01 0.01 91 1016.7
20260906045936 58 60 0.0 0.0 0.00 0.01 0.01 91 1016.7
20260906044431 58 60 0.0 0.0 0.00 0.01 0.01 90 1016.9
20260906042930 59 60 0.0 0.0 0.00 0.01 0.01 89 1016.9
20260906041426 59 319 0.0 0.0 0.00 0.01 0.01 88 1017.0
20260906035922 60 316 0.0 0.0 0.00 0.01 0.01 89 1017.0
20260906034419 60 317 0.0 0.0 0.00 0.01 0.01 87 1016.9
20260906032916 60 60 0.0 0.0 0.00 0.01 0.01 86 1016.5
20260906031414 61 299 0.0 0.0 0.00 0.01 0.01 84 1016.6
20260906025910 62 144 0.0 0.0 0.00 0.01 0.01 82 1016.5
20260906024408 62 63 0.0 0.0 0.00 0.01 0.01 81 1016.6
20260906022906 64 56 0.0 1.0 0.00 0.01 0.01 78 1016.7
20260906021402 65 220 0.0 1.0 0.00 0.01 0.01 74 1016.6
20260906015857 66 205 1.0 1.0 0.00 0.01 0.01 72 1016.5
20260906014356 67 294 2.0 2.0 0.00 0.01 0.01 70 1016.4
20260906012855 68 115 0.0 0.0 0.00 0.01 0.01 65 1016.4
20260906011350 69 58 0.0 1.0 0.00 0.01 0.01 61 1016.3
20260906005849 69 267 1.0 2.0 0.00 0.01 0.01 62 1016.6
20260906004347 69 94 0.0 1.0 0.00 0.01 0.01 61 1016.6
20260906002845 70 60 0.0 0.0 0.00 0.01 0.01 60 1016.5
20260906001341 71 69 0.0 1.0 0.00 0.01 0.01 60 1016.4
20260905235836 72 117 1.0 1.0 0.00 0.01 0.01 58 1016.3
20260905234333 74 164 0.0 1.0 0.00 0.01 0.01 56 1016.1
20260905232828 73 64 0.0 0.0 0.00 0.01 0.01 54 1016.5
20260905231327 70 44 0.0 0.0 0.00 0.01 0.01 57 1016.6
20260905225826 72 163 0.0 0.0 0.00 0.01 0.01 56 1016.7
20260905224323 74 259 1.0 1.0 0.00 0.01 0.01 54 1016.5
20260905222822 73 205 1.0 1.0 0.00 0.01 0.01 56 1016.7
20260905221320 74 144 0.0 1.0 0.00 0.01 0.01 57 1017.0
20260905215816 71 179 1.0 1.0 0.00 0.01 0.01 54 1017.0
20260905214315 74 96 0.0 0.0 0.00 0.01 0.01 53 1017.3
20260905212812 71 150 2.0 2.0 0.00 0.01 0.01 58 1017.4
20260905211307 71 178 1.0 2.0 0.00 0.01 0.01 59 1017.4
20260905205802 73 18 1.0 1.0 0.00 0.01 0.01 59 1017.7
20260905204259 72 272 1.0 2.0 0.00 0.01 0.01 60 1017.9
20260905202755 71 223 1.0 1.0 0.00 0.01 0.01 61 1017.8
20260905201252 68 73 1.0 1.0 0.00 0.01 0.01 64 1017.8
20260905195752 68 185 1.0 1.0 0.00 0.01 0.01 65 1017.9
20260905194248 70 183 1.0 2.0 0.00 0.01 0.01 62 1018.1